Regional Weather Roundup
Issued by NWS Wilmington, NC

Home | Current Version | Previous Version | Text Only | Print | Product List | Glossary On
Versions: 1 2 3 4 5 6 7 8 9 10 11 12 13 14 15 16 17 18 19 20 21 22 23 24 25 26 27 28 29 30 31 32 33 34 35 36 37 38 39 40 41 42 43 44 45 46 47
000
ASUS42 KILM 312313
RWRILM
RWRILM
REGIONAL HOURLY WEATHER ROUNDUP
NATIONAL WEATHER SERVICE WILMINGTON NC
700 PM EDT FRI JUL 31 2015

NOTE: "FAIR" INDICATES FEW OR NO CLOUDS BELOW 12,000 FEET WITH NO
SIGNIFICANT WEATHER AND/OR OBSTRUCTIONS TO VISIBILITY.

...............WFO WILMINGTON COUNTY WARNING AREA...............

......COASTAL NC AND SC COUNTIES......

CITY           SKY/WX    TMP DP  RH WIND       PRES   REMARKS
WILMINGTON     TSTM      76  73  91 SW9       29.92R
N MYRTLE BEACH PTSUNNY   84  76  76 S13       29.89R HX  93
MYRTLE BEACH   PTSUNNY   84  73  70 S17       29.91R HX  91

......INLAND NC AND SC COUNTIES.......

CITY           SKY/WX    TMP DP  RH WIND       PRES   REMARKS
LUMBERTON      SUNNY     95  66  38 VRB5      29.86R HX  98
ELIZABETHTOWN  CLOUDY    91  71  51 SE3       29.88R HX  97
WHITEVILLE     RAIN      80  75  85 S5        29.89R
FLORENCE       SUNNY     95  69  42 NE3       29.86S HX 100
DARLINGTON     MOSUNNY   91  66  43 S6        29.88R HX  94

....................REST OF NORTH CAROLINA......................

.........EASTERN NC.........

CITY           SKY/WX    TMP DP  RH WIND       PRES   REMARKS
CAPE HATTERAS  PTSUNNY   84  73  69 VRB5      29.90R HX  90
JACKSONVILLE   PTSUNNY   90  72  55 E5        29.88R HX  96
MOREHEAD CITY  HVY RAIN  74  73  97 N14G24    29.91R VSB 1/2
KENANSVILLE    MOSUNNY  N/A N/A N/A CALM      29.90R
NEW BERN       SUNNY     88  73  61 SE8       29.89R HX  95
ELIZABETH CITY SUNNY     83  67  58 E8        29.89R

.........CENTRAL NC.........

CITY           SKY/WX    TMP DP  RH WIND       PRES   REMARKS
RALEIGH DURHAM MOSUNNY   87  61  41 N7        29.91R
ROCKY MOUNT    SUNNY     91  64  40 NW8       29.89R HX  92
ROANOKE RAPIDS NOT AVBL
FAYETTEVILLE   PTSUNNY   90  66  45 NE6       29.87R HX  92
HOFFMAN        MOSUNNY   91  61  36 N7        29.88R HX  91

.........WESTERN NC.........

CITY           SKY/WX    TMP DP  RH WIND       PRES   REMARKS
CHARLOTTE      MOSUNNY   90  53  28 NW7       29.93R
GREENSBORO     MOSUNNY   87  57  35 NW8       29.93S
HICKORY        NOT AVBL
BOONE          NOT AVBL
ASHEVILLE      NOT AVBL

.....................REST OF SOUTH CAROLINA.....................

.........EASTERN SC.........

CITY           SKY/WX    TMP DP  RH WIND       PRES   REMARKS
CHARLESTON     CLOUDY    82  76  81 W5        29.91R
BEAUFORT MCAS  LGT RAIN  78  74  87 CALM      29.91F
HILTON HEAD    PTSUNNY   81  73  78 CALM      29.92S

.........CENTRAL SC.........

CITY           SKY/WX    TMP DP  RH WIND       PRES   REMARKS
COLUMBIA       PTSUNNY   94  65  38 SE7       29.87S HX  96
ORANGEBURG     LGT RAIN  79  73  82 S7        29.91S
SUMTER SHAW    PTSUNNY   92  67  43 W7        29.86R HX  95

.........WESTERN SC.........

CITY           SKY/WX    TMP DP  RH WIND       PRES   REMARKS
GREENVILLE     NOT AVBL
ROCK HILL      SUNNY     90  58  33 NW8       29.93R
ANDERSON       SUNNY     91  65  41 CALM      29.92S HX  93
CLEMSON        NOT AVBL
GREENWOOD      MOSUNNY   92  63  38 S5        29.91F HX  93


...................COASTAL AND OFFSHORE REPORTS..................

................LOCAL PIERS AND NC RESERVE................


STATION/POSITION TIME  SKY/WX   TEMP    WIND        PRES    VSBY
                                AIR SEA DIR/SP/G
                 (UTC)          (F)     (DEG/KT/KT) (MB)    (MI)
JOHNY MRCER PIER 2200            84 87  190/ 16/ 18 1011.4R
NC RESRV MASNBRO NOT AVBL
OCEAN CREST PIER NOT AVBL
SPRINGMAID  PIER 2200            83 86  160/ 14/ 16 1012.0R


................COASTAL AND OFFSHORE BUOYS................


STATION/POSITION TIME  SKY/WX   TEMP    WIND        PRES    VSBY
                                AIR SEA DIR/SP/G
                 (UTC)          (F)     (DEG/KT/KT) (MB)    (MI)
DIMNDSHOAL 41025 2250            81 86  360/  4/  6 1012.6R
WVE H/P(F/S)=  4/ 9 WND WVE H/P(F/S)=  2/ 3 SWL H/P/D(F/S/D)=  3/130/ 9

CAPE LOOKOUT     2300            79      80/  8/  9 1012.4R
ONSLOW BAY 41036 NOT AVBL
5 WRITEBCH 41038 2208            83 83  210/ 14/ 17 1011.6R
MASONBORO  41110 2219               83                N/A
WVE H/P(F/S)=  2/ 7 WND WVE H/P(F/S)=  2/ 7

WILM HARBR 41108 2211               83                N/A
WVE H/P(F/S)=  3/ 6 WND WVE H/P(F/S)=  3/ 6

27WRITEBCH 41037 2200            80 84  210/ 10/ 12   N/A
FRYING PAN 41013 2250            82 85  210/ 17/ 21 1012.6R
WVE H/P(F/S)=  4/ 6 WND WVE H/P(F/S)=  3/ 6 SWL H/P/D(F/S/D)=  2/130/ 8

SUNST NRSH 41024 2208            83     200/ 12/ 16 1011.7R
CAPRS NRSH 41029 2208            82     220/ 16/ 21 1012.9R
EDISTO     41004 2250            83 84  200/ 17/ 19 1011.9F
WVE H/P(F/S)=  3/ 8 WND WVE H/P(F/S)=  2/ 4 SWL H/P/D(F/S/D)=  2/ 8



..........OFFSHORE BUOYS BEYOND 100 NM OFFSHORE...........
.....IN A TRIANGLE---HAT TO BERMUDA TO BAHAMAS TO HAT.....


STATION/POSITION TIME  SKY/WX   TEMP    WIND        PRES    VSBY
                                AIR SEA DIR/SP/G
                 (UTC)          (F)     (DEG/KT/KT) (MB)    (MI)
150E HAT   41001 2300            82 83  230/ 25/ 31 1011.3R
W BERMUDA  41048 2250            83 82  210/ 16/ 19 1017.6R
WVE H/P(F/S)=  7/ 8 WND WVE H/P(F/S)=  5/ 6 SWL H/P/D(F/S/D)=  5/250/ 8

ATLANTIC S 41049 2250            85 87   70/  6/  8 1021.1R
WVE H/P(F/S)=  4/10 SWL H/P/D(F/S/D)=  3/ 50/10

E BAHAMAS  41046 2250            84 85  130/ 14/ 16 1018.6R
WVE H/P(F/S)=  4/ 9 WND WVE H/P(F/S)=  3/ 6 SWL H/P/D(F/S/D)=  3/ 90/ 9

NE BAHAMAS 41047 2250            84 85  210/  8/ 10 1018.7R
WVE H/P(F/S)=  4/ 8 WND WVE H/P(F/S)=  2/ 4 SWL H/P/D(F/S/D)=  3/ 80/ 8

120E CANVRL41010 2220            83 84  170/ 14/ 17 1015.0F

END



USA.gov is the U.S. government's official web portal to all federal, state and local government web resources and services.